Date Time,Air Temp,Sky Temp,Clarity,Light Level,Rain Sensor,Readings
2009-11-24 00:00:03,20.9,-22.1,43.0,0.0,2.3,112
2009-11-24 00:05:03,20.9,-22.0,42.9,0.0,2.3,112
2009-11-24 00:10:03,20.9,-21.6,42.5,0.0,2.3,111
2009-11-24 00:15:03,20.8,-21.3,42.1,0.0,2.3,111
2009-11-24 00:20:03,20.8,-20.5,41.3,0.0,2.3,112
2009-11-24 00:25:03,20.8,-18.6,39.4,0.0,2.3,111
2009-11-24 00:30:03,20.8,-17.0,37.8,0.0,2.3,112
2009-11-24 00:35:03,20.8,-15.6,36.4,0.0,2.3,111
2009-11-24 00:40:03,20.9,-15.0,35.9,0.0,2.3,112
2009-11-24 00:45:03,20.9,-8.5,29.4,0.0,2.3,111
2009-11-24 00:50:03,20.9,-3.9,24.9,0.0,2.3,112
2009-11-24 00:55:03,21.1,-3.8,24.9,0.0,2.3,112
2009-11-24 01:00:03,21.2,-1.3,22.5,0.0,2.3,111
2009-11-24 01:05:03,21.3,-2.5,23.8,0.0,2.3,112
2009-11-24 01:10:03,21.4,-7.6,29.0,0.0,2.3,112
2009-11-24 01:15:03,21.4,-11.9,33.4,0.0,2.3,111
2009-11-24 01:20:03,21.3,-7.0,28.4,0.0,2.3,112
2009-11-24 01:25:03,21.3,-9.4,30.7,0.0,2.3,111
2009-11-24 01:30:03,21.3,-10.0,31.3,0.0,2.3,112
2009-11-24 01:35:03,21.3,-4.8,26.1,0.0,2.3,111
2009-11-24 01:40:03,21.4,-4.8,26.2,0.0,2.3,112
2009-11-24 01:45:03,21.5,-3.1,24.5,0.0,2.3,111
2009-11-24 01:50:03,21.6,-1.4,23.1,0.0,2.3,112
2009-11-24 01:55:03,21.6,0.6,21.1,0.0,2.4,111
2009-11-24 02:00:03,19.5,2.7,16.7,0.0,2.3,111
2009-11-24 02:05:03,17.5,3.3,14.3,0.0,2.3,112
2009-11-24 02:10:03,17.4,3.9,13.5,0.0,2.3,111
2009-11-24 02:15:03,17.3,3.8,13.5,0.0,2.4,112
2009-11-24 02:20:03,17.3,4.3,13.0,0.0,2.3,111
2009-11-24 02:25:03,17.3,4.6,12.7,0.0,2.3,112
2009-11-24 02:30:03,17.3,5.0,12.3,0.0,2.3,111
2009-11-24 02:35:03,17.4,5.1,12.3,0.0,2.3,112
2009-11-24 02:40:03,17.4,5.0,12.3,0.0,2.3,112
2009-11-24 02:45:03,17.4,5.0,12.4,0.0,2.3,111
2009-11-24 02:50:03,17.4,5.3,12.1,0.0,2.3,112
2009-11-24 02:55:03,17.4,5.4,12.0,0.0,2.3,112
2009-11-24 03:00:03,17.4,5.5,11.9,0.0,2.3,111
2009-11-24 03:05:03,17.4,5.3,12.1,0.0,2.3,112
2009-11-24 03:10:03,17.4,5.4,11.9,0.0,2.3,111
2009-11-24 03:15:03,17.4,5.5,11.8,0.0,2.3,112
2009-11-24 03:20:03,17.4,5.6,11.8,0.0,2.4,112
2009-11-24 03:25:03,17.4,5.6,11.8,0.0,2.7,112
2009-11-24 03:30:03,17.3,5.6,11.7,0.0,2.7,111
2009-11-24 03:35:03,17.3,5.7,11.6,0.0,2.9,112
2009-11-24 03:40:03,17.3,6.5,10.8,0.0,2.7,112
2009-11-24 03:45:03,17.3,6.6,10.8,0.0,2.6,111
2009-11-24 03:50:03,17.4,6.7,10.8,0.0,2.4,112
2009-11-24 03:55:03,17.6,6.9,10.6,0.0,2.3,111
2009-11-24 04:00:03,17.7,6.8,10.8,0.0,2.5,111
2009-11-24 04:05:03,17.8,7.0,10.9,0.0,2.6,111
2009-11-24 04:10:03,17.9,7.1,10.8,0.0,2.5,111
2009-11-24 04:15:03,18.0,7.0,11.0,0.0,11.3,112
2009-11-24 04:20:03,18.2,8.7,9.5,0.0,4.6,111
2009-11-24 04:25:03,18.2,7.7,10.4,0.0,2.6,112
2009-11-24 04:30:03,18.2,6.5,11.7,0.0,3.3,111
2009-11-24 04:35:03,18.3,6.2,12.1,0.0,6.7,112
2009-11-24 04:40:03,18.4,5.9,12.6,0.0,4.2,111
2009-11-24 04:45:03,18.4,6.4,12.0,0.0,2.8,112
2009-11-24 04:50:03,18.5,6.4,12.1,0.0,2.7,111
2009-11-24 04:55:03,18.5,6.9,11.7,0.0,2.7,111
2009-11-24 05:00:03,18.6,7.1,11.6,0.0,2.7,112
2009-11-24 05:05:03,18.6,6.8,11.8,0.0,2.7,111
2009-11-24 05:10:03,18.7,6.8,11.9,0.0,2.6,111
2009-11-24 05:15:03,18.7,6.2,12.5,0.0,2.7,112
2009-11-24 05:20:03,18.7,6.7,12.0,0.0,2.7,111
2009-11-24 05:25:03,18.7,6.4,12.3,0.0,4.7,111
2009-11-24 05:30:03,18.6,6.6,12.1,0.0,2.7,112
2009-11-24 05:35:03,18.7,4.8,13.9,0.0,4.6,111
2009-11-24 05:40:03,18.6,5.4,13.2,0.0,2.7,111
2009-11-24 05:45:03,18.7,6.5,12.1,0.0,2.6,112
2009-11-24 05:50:03,18.7,5.3,13.4,0.0,2.6,111
2009-11-24 05:55:03,18.8,6.2,12.6,0.0,3.6,112
2009-11-24 06:00:03,18.8,5.8,13.0,0.0,5.2,112
2009-11-24 06:05:03,18.7,6.4,12.3,0.0,2.7,111
2009-11-24 06:10:03,18.7,5.4,13.3,0.0,2.7,112
2009-11-24 06:15:03,18.7,4.0,14.7,0.0,2.7,111
2009-11-24 06:20:03,18.7,5.6,13.2,0.0,2.6,111
2009-11-24 06:25:03,18.8,5.5,13.3,0.0,2.5,112
2009-11-24 06:30:03,18.9,6.0,12.9,0.0,2.5,111
2009-11-24 06:35:03,18.9,6.1,12.8,0.1,2.4,112
2009-11-24 06:40:03,18.9,5.7,13.2,0.1,2.4,111
2009-11-24 06:45:03,18.9,5.4,13.5,0.2,2.4,111
2009-11-24 06:50:03,18.9,5.5,13.4,0.4,2.4,111
2009-11-24 06:55:03,18.9,4.6,14.4,0.9,2.4,112
2009-11-24 07:00:03,18.9,4.1,14.8,1.7,2.4,111
2009-11-24 07:05:03,19.0,3.5,15.5,3.3,2.3,112
2009-11-24 07:10:03,19.0,4.9,14.1,5.6,2.3,111
2009-11-24 07:15:03,19.0,4.8,14.2,11.3,2.3,112
2009-11-24 07:20:03,19.0,5.8,13.3,15.9,2.3,112
2009-11-24 07:25:03,19.1,6.0,13.1,19.5,2.3,111
2009-11-24 07:30:03,19.0,5.0,14.1,24.1,4.6,112
2009-11-24 07:35:03,19.0,7.8,11.2,26.8,7.9,111
2009-11-24 07:40:03,18.8,7.3,11.5,27.8,2.7,112
2009-11-24 07:45:03,18.7,6.2,12.6,29.1,3.0,111
2009-11-24 07:50:03,18.7,6.5,12.2,29.6,2.8,111
2009-11-24 07:55:03,18.7,6.4,12.2,30.2,2.7,112
2009-11-24 08:00:03,18.7,6.3,12.4,30.6,2.7,111
2009-11-24 08:05:03,18.7,6.4,12.3,30.6,10.8,112
2009-11-24 08:10:03,18.7,7.9,10.9,30.8,22.8,111
2009-11-24 08:15:03,19.0,8.9,10.0,30.6,23.8,112
2009-11-24 08:20:03,19.0,7.9,11.1,30.4,18.0,112
2009-11-24 08:25:03,19.0,7.5,11.6,31.3,8.8,111
2009-11-24 08:30:03,18.8,7.6,11.2,31.5,2.7,111
2009-11-24 08:35:03,18.7,7.8,10.9,31.8,2.3,112
2009-11-24 08:40:03,18.7,8.1,10.6,31.9,2.3,111
2009-11-24 08:45:03,18.8,7.5,11.3,32.0,2.3,112
2009-11-24 08:50:03,18.9,5.8,13.0,32.0,2.3,111
2009-11-24 08:55:03,19.0,6.2,12.8,32.0,2.3,111
2009-11-24 09:00:03,19.0,5.9,13.1,32.0,2.6,112
2009-11-24 09:05:03,18.9,6.3,12.6,32.0,2.4,111
2009-11-24 09:10:03,18.9,6.1,12.8,32.0,2.3,112
2009-11-24 09:15:03,19.0,6.1,13.0,32.1,2.3,111
2009-11-24 09:20:03,19.1,6.3,12.8,32.1,2.3,112
2009-11-24 09:25:03,19.2,5.8,13.4,32.2,2.3,111
2009-11-24 09:30:03,19.3,5.9,13.4,32.2,2.3,111
2009-11-24 09:35:03,19.3,6.3,13.1,32.2,2.3,112
2009-11-24 09:40:03,19.3,5.9,13.4,32.2,2.3,111
2009-11-24 09:45:03,19.4,5.8,13.6,32.2,2.3,112
2009-11-24 09:50:03,19.4,5.7,13.6,32.2,2.3,112
2009-11-24 09:55:03,19.4,5.4,14.1,32.2,2.2,111
2009-11-24 10:00:03,19.4,5.8,13.7,32.1,2.2,111
2009-11-24 10:05:03,19.4,5.6,13.8,32.2,2.2,112
2009-11-24 10:10:03,19.4,5.4,14.0,32.2,2.2,112
2009-11-24 10:15:03,19.4,5.5,13.9,32.2,2.2,111
2009-11-24 10:20:03,19.4,5.7,13.8,32.1,2.2,112
2009-11-24 10:25:03,19.4,5.4,14.0,32.2,2.2,112
2009-11-24 10:30:03,19.4,5.2,14.2,32.3,2.2,111
2009-11-24 10:35:03,19.4,5.3,14.1,32.3,2.2,112
2009-11-24 10:40:03,19.4,4.9,14.5,32.3,2.2,112
2009-11-24 10:45:03,19.4,4.8,14.6,32.3,2.2,112
2009-11-24 10:50:03,19.4,5.2,14.3,32.3,2.2,111
2009-11-24 10:55:03,19.4,4.8,14.6,32.4,2.2,112
2009-11-24 11:00:03,19.5,5.0,14.5,32.4,2.3,112
2009-11-24 11:05:03,19.4,4.9,14.5,32.4,2.2,111
2009-11-24 11:10:03,19.5,4.9,14.5,32.3,2.3,112
2009-11-24 11:15:03,19.4,5.1,14.3,32.3,2.3,111
2009-11-24 11:20:03,19.4,4.5,14.9,32.4,2.3,112
2009-11-24 11:25:03,19.4,4.9,14.5,32.4,2.3,111
2009-11-24 11:30:03,19.4,5.1,14.3,32.4,2.3,112
2009-11-24 11:35:03,19.4,4.2,15.3,32.3,3.4,111
2009-11-24 11:40:03,19.3,3.5,15.8,32.3,6.6,112
2009-11-24 11:45:03,19.0,4.5,14.6,32.3,4.0,111
2009-11-24 11:50:03,18.8,4.6,14.3,32.3,3.9,112
2009-11-24 11:55:03,18.8,4.8,14.0,32.3,3.8,112
2009-11-24 12:00:03,18.8,4.9,13.9,32.4,3.5,111
2009-11-24 12:05:03,18.8,5.1,13.8,32.3,3.3,112
2009-11-24 12:10:03,18.9,4.8,14.1,32.4,3.3,111
2009-11-24 12:15:03,19.1,5.0,14.1,32.4,3.2,112
2009-11-24 12:20:03,19.2,4.9,14.3,32.3,3.5,112
2009-11-24 12:25:03,19.2,5.2,14.0,32.3,3.6,112
2009-11-24 12:30:03,19.2,5.0,14.2,32.3,3.4,112
2009-11-24 12:35:03,19.3,5.0,14.3,32.3,3.4,111
2009-11-24 12:40:03,19.3,5.2,14.1,32.3,3.4,112
2009-11-24 12:45:03,19.0,4.2,14.8,32.4,3.4,111
2009-11-24 12:50:03,19.0,4.4,14.6,32.4,3.6,112
2009-11-24 12:55:03,19.4,4.3,15.1,32.4,3.5,111
2009-11-24 13:00:03,19.5,4.3,15.2,32.4,3.4,112
2009-11-24 13:05:03,19.5,3.9,15.6,32.3,3.5,111
2009-11-24 13:10:03,19.5,3.7,15.8,32.4,3.8,112
2009-11-24 13:15:03,19.4,3.5,15.9,32.4,3.6,111
2009-11-24 13:20:03,19.4,3.1,16.3,32.4,3.5,112
2009-11-24 13:25:03,19.5,3.1,16.4,32.4,3.5,111
2009-11-24 13:30:03,19.5,2.9,16.7,32.4,3.5,112
2009-11-24 13:35:03,19.6,2.9,16.6,32.4,3.4,111
2009-11-24 13:40:03,19.6,3.2,16.4,32.5,3.3,111
2009-11-24 13:45:03,19.7,3.2,16.5,32.5,3.2,111
2009-11-24 13:50:03,19.8,2.9,16.9,32.5,3.2,112
2009-11-24 13:55:03,20.0,1.9,18.1,32.5,3.2,111
2009-11-24 14:00:03,20.3,2.3,18.0,32.5,3.3,111
2009-11-24 14:05:03,20.0,3.5,16.5,32.4,3.3,111
2009-11-24 14:10:03,19.9,3.7,16.2,32.4,3.3,111
2009-11-24 14:15:03,19.8,4.0,15.8,32.4,3.4,111
2009-11-24 14:20:03,19.7,5.1,14.6,32.2,3.6,112
2009-11-24 14:25:03,19.6,4.6,15.0,32.3,3.5,111
2009-11-24 14:30:03,19.6,5.3,14.3,32.1,3.5,112
2009-11-24 14:35:03,19.5,5.4,14.1,32.0,3.6,112
2009-11-24 14:40:03,19.5,5.3,14.1,31.8,3.9,111
2009-11-24 14:45:03,19.3,4.2,15.1,31.4,11.2,112
2009-11-24 14:50:03,19.0,4.6,14.4,31.1,6.8,111
2009-11-24 14:55:03,18.8,5.9,12.9,31.4,4.8,112
2009-11-24 15:00:03,18.8,5.9,13.0,31.5,4.7,111
2009-11-24 15:05:03,18.9,6.0,13.0,31.6,4.6,112
2009-11-24 15:10:03,19.0,5.4,13.6,31.8,4.6,111
2009-11-24 15:15:03,19.1,5.7,13.4,31.8,4.7,112
2009-11-24 15:20:03,18.8,5.7,13.1,31.5,4.7,112
2009-11-24 15:25:03,19.2,5.6,13.6,31.6,4.6,111
2009-11-24 15:30:03,19.2,5.4,13.8,31.6,4.6,112
2009-11-24 15:35:03,19.2,5.6,13.6,30.9,4.6,111
2009-11-24 15:40:03,19.2,5.8,13.4,30.2,4.7,112
2009-11-24 15:45:03,19.2,5.5,13.7,30.4,4.6,111
2009-11-24 15:50:03,19.2,5.7,13.5,30.1,4.7,112
2009-11-24 15:55:03,19.2,5.7,13.5,30.2,4.7,112
2009-11-24 16:00:03,19.2,4.8,14.4,30.4,4.7,111
2009-11-24 16:05:03,19.2,4.2,15.0,29.9,4.7,112
2009-11-24 16:10:03,19.1,5.0,14.1,29.1,4.7,112
2009-11-24 16:15:03,19.1,3.9,15.2,28.6,4.7,111
2009-11-24 16:20:03,18.8,4.4,14.4,25.9,4.7,112
2009-11-24 16:25:03,18.8,5.2,13.6,20.0,4.7,111
2009-11-24 16:30:03,19.1,5.2,13.9,13.7,4.8,112
2009-11-24 16:35:03,19.1,5.5,13.6,7.1,4.8,111
2009-11-24 16:40:03,19.2,5.8,13.4,2.9,4.9,112
2009-11-24 16:45:03,19.1,5.4,13.8,1.3,6.3,111
2009-11-24 16:50:03,18.9,5.8,13.2,0.8,5.0,112
2009-11-24 16:55:03,18.9,5.8,13.1,0.4,4.7,112
2009-11-24 17:00:03,18.9,5.7,13.2,0.2,5.3,111
2009-11-24 17:05:03,18.9,5.2,13.6,0.1,5.6,112
2009-11-24 17:10:03,18.8,6.0,12.8,0.1,4.9,112
2009-11-24 17:15:03,18.9,5.9,13.0,0.1,4.7,111
2009-11-24 17:20:03,19.0,5.3,13.6,0.0,5.4,112
2009-11-24 17:25:03,18.9,4.7,14.3,0.0,8.3,111
2009-11-24 17:30:03,18.8,5.5,13.3,0.0,7.0,112
2009-11-24 17:35:03,18.7,5.3,13.4,0.0,7.5,111
2009-11-24 17:40:03,18.6,5.0,13.6,0.0,7.4,112
2009-11-24 17:45:03,18.5,5.7,12.9,0.0,6.6,111
2009-11-24 17:50:03,18.5,4.9,13.7,0.1,6.8,112
2009-11-24 17:55:03,18.5,4.8,13.8,0.1,6.8,112
2009-11-24 18:00:03,18.6,4.8,13.8,0.1,5.6,112
2009-11-24 18:05:03,18.8,4.5,14.3,0.1,5.5,112
2009-11-24 18:10:03,19.0,2.9,16.1,0.1,5.5,111
2009-11-24 18:15:03,19.1,3.8,15.3,0.1,5.5,111
2009-11-24 18:20:03,19.2,2.9,16.2,0.1,5.4,111
2009-11-24 18:25:03,19.2,2.7,16.5,0.1,5.4,111
2009-11-24 18:30:03,19.3,2.5,16.7,0.1,5.4,112
2009-11-24 18:35:03,19.3,2.6,16.6,0.1,5.4,111
2009-11-24 18:40:03,19.3,2.3,17.0,0.1,5.2,111
2009-11-24 18:45:03,19.3,2.0,17.2,0.1,5.2,111
2009-11-24 18:50:03,19.9,-1.2,21.1,0.1,5.2,111
2009-11-24 18:55:03,21.8,1.6,20.2,0.1,5.2,111
2009-11-24 19:00:03,21.9,-0.5,22.4,0.1,5.3,111
2009-11-24 19:05:03,23.3,-3.5,26.9,0.1,5.3,112
2009-11-24 19:10:03,23.7,1.1,22.7,0.1,5.3,111
2009-11-24 19:15:03,23.8,0.4,23.4,0.1,5.4,112
2009-11-24 19:20:03,23.8,-0.3,24.2,0.1,5.4,111
2009-11-24 19:25:03,23.9,0.4,23.5,0.1,5.4,112
2009-11-24 19:30:03,23.8,0.7,23.1,0.1,5.4,111
2009-11-24 19:35:03,23.2,2.0,21.2,0.1,5.4,111
2009-11-24 19:40:03,23.4,2.5,20.9,0.1,5.5,111
2009-11-24 19:45:03,23.2,2.5,20.7,0.1,5.6,111
2009-11-24 19:50:03,20.9,4.5,16.4,0.0,5.8,112
2009-11-24 19:55:03,19.8,4.3,15.6,0.0,7.3,111
2009-11-24 20:00:03,19.4,5.1,14.3,0.0,6.3,112
2009-11-24 20:05:03,19.2,5.3,13.9,0.0,6.3,112
2009-11-24 20:10:03,19.2,5.6,13.6,0.0,6.1,111
2009-11-24 20:15:03,19.2,5.6,13.6,0.0,6.1,112
2009-11-24 20:20:03,19.3,5.5,13.8,0.0,6.2,111
2009-11-24 20:25:03,19.2,5.3,14.0,0.0,6.2,112
2009-11-24 20:30:03,19.2,4.3,15.0,0.1,6.0,111
2009-11-24 20:35:03,19.3,4.5,14.8,0.1,5.8,112
2009-11-24 20:40:03,19.3,4.7,14.6,0.1,5.8,112
2009-11-24 20:45:03,19.3,3.1,16.2,0.1,5.8,111
2009-11-24 20:50:03,19.3,2.4,16.9,0.1,5.7,111
2009-11-24 20:55:03,19.4,1.1,18.4,0.0,5.8,111
2009-11-24 21:00:03,19.5,3.0,16.6,0.0,5.8,111
2009-11-24 21:05:03,19.4,2.3,17.1,0.0,6.0,111
2009-11-24 21:10:03,19.4,2.3,17.1,0.1,5.9,111
2009-11-24 21:15:03,19.4,1.0,18.3,0.0,5.8,111
2009-11-24 21:20:03,19.4,1.5,17.9,0.0,5.9,111
2009-11-24 21:25:03,19.3,2.1,17.3,0.0,5.9,111
2009-11-24 21:30:03,19.3,2.8,16.5,0.1,5.9,112
2009-11-24 21:35:03,19.3,2.7,16.6,0.1,5.9,111
2009-11-24 21:40:03,19.3,3.3,16.1,0.1,6.0,111
2009-11-24 21:45:03,19.3,2.7,16.7,0.1,6.0,111
2009-11-24 21:50:03,19.4,2.7,16.7,0.0,5.9,111
2009-11-24 21:55:03,19.4,3.6,15.8,0.0,6.0,112
2009-11-24 22:00:03,19.4,4.4,15.0,0.0,6.2,111
2009-11-24 22:05:03,19.3,4.9,14.4,0.0,6.3,112
2009-11-24 22:10:03,19.3,3.5,15.8,0.0,6.3,112
2009-11-24 22:15:03,19.4,4.1,15.3,0.0,7.2,111
2009-11-24 22:20:03,19.2,4.3,14.9,0.0,15.3,112
2009-11-24 22:25:03,18.8,5.3,13.6,0.0,10.0,111
2009-11-24 22:30:03,18.7,5.1,13.6,0.0,8.6,112
2009-11-24 22:35:03,18.7,4.7,14.0,0.0,7.9,111
2009-11-24 22:40:03,18.9,5.2,13.7,0.0,7.7,112
2009-11-24 22:45:03,19.1,5.4,13.6,0.0,7.7,112
2009-11-24 22:50:03,19.2,5.3,13.8,0.0,7.6,111
2009-11-24 22:55:03,19.3,5.0,14.3,0.0,10.2,112
2009-11-24 23:00:03,19.1,5.4,13.7,0.0,16.0,111
2009-11-24 23:05:03,18.9,7.6,11.3,0.0,19.2,112
2009-11-24 23:10:03,18.7,6.2,12.4,0.0,12.2,111
2009-11-24 23:15:03,18.6,5.4,13.1,0.0,9.7,112
2009-11-24 23:20:03,18.7,5.5,13.1,0.0,9.4,111
2009-11-24 23:25:03,19.2,5.3,13.9,0.0,8.9,112
2009-11-24 23:30:03,19.1,5.6,13.5,0.0,8.9,112
2009-11-24 23:35:03,19.2,5.0,14.1,0.0,10.4,111
2009-11-24 23:40:03,19.1,4.9,14.2,0.0,13.0,111
2009-11-24 23:45:03,19.0,5.5,13.5,0.0,10.6,112
2009-11-24 23:50:03,19.1,5.2,13.9,0.0,10.5,111
2009-11-24 23:55:03,19.2,5.2,14.0,0.0,10.6,112
